Location: Chuathbaluk
(61.5726°N, 159.2454°W)
Time: 15:34:09
(UTC+00:00)

S-56A Canister/Altair - Pass Details

Date: 29 November 2020
Orbit: 633 x 2499 km, 38.9° (Epoch: 15 January)

Event Time Altitude Azimuth Distance (km) Brightness Sun altitude
Rises 07:39:40 0° 228° (SW) 5,030 11.8 -40.9°
Enters shadow 07:43:49 - 214° (SSW) 3,971 11.1 -41.3°
Reaches altitude 10° 07:45:48 10° 204° (SSW) 3,546 - -41.5°
Maximum altitude 07:48:58 12° 182° (S) 3,094 - -41.8°
Drops below altitude 10° 07:51:46 10° 160° (SSE) 3,036 - -42.1°
Sets 07:56:03 0° 131° (SE) 3,628 - -42.5°
